This is the latest recevied weather packets stored in our database for station/object KN6WGU. If no packets are shown the sender has not sent any weather packets the latest 10 day(s).
| Time | Temp. | Humidity | Pressure | Rain* | Wind** | Luminosity | Snow |
|---|---|---|---|---|---|---|---|
| 1787697672 | 23.33° C | 64% | 1011.5 hPa | 0 mm | - | 68 W/m² | - |
| 1787697368 | 23.33° C | 65% | 1011.6 hPa | 0 mm | - | 71 W/m² | - |
| 1787697063 | 22.78° C | 63% | 1011.6 hPa | 0 mm | - | 72 W/m² | - |
| 1787696758 | 22.78° C | 64% | 1011.6 hPa | 0 mm | - | 59 W/m² | - |
| 1787696454 | 23.33° C | 65% | 1011.7 hPa | 0 mm | - | 60 W/m² | - |
| 1787696150 | 23.33° C | 65% | 1011.9 hPa | 0 mm | - | 71 W/m² | - |
| 1787695848 | 23.33° C | 64% | 1011.6 hPa | 0 mm | - | 80 W/m² | - |
| 1787695544 | 23.33° C | 65% | 1011.6 hPa | 0 mm | - | 86 W/m² | - |
| 1787695240 | 23.89° C | 65% | 1011.8 hPa | 0 mm | - | 92 W/m² | - |
| 1787694939 | 23.89° C | 66% | 1011.8 hPa | 0 mm | - | 94 W/m² | - |
| 1787694633 | 23.33° C | 64% | 1011.8 hPa | 0 mm | - | 75 W/m² | - |
| 1787694328 | 23.33° C | 63% | 1011.8 hPa | 0 mm | - | 67 W/m² | - |
| 1787694023 | 23.33° C | 62% | 1012 hPa | 0 mm | - | 70 W/m² | - |
| 1787693719 | 23.33° C | 65% | 1011.9 hPa | 0 mm | - | 74 W/m² | - |
| 1787693415 | 23.89° C | 65% | 1012 hPa | 0 mm | - | 82 W/m² | - |
| 1787693111 | 23.89° C | 60% | 1012.1 hPa | 0 mm | - | 97 W/m² | - |
| 1787692807 | 23.89° C | 63% | 1011.9 hPa | 0 mm | - | 104 W/m² | - |
| 1787692502 | 23.89° C | 62% | 1011.9 hPa | 0 mm | - | 112 W/m² | - |
| 1787692201 | 23.89° C | 63% | 1012 hPa | 0 mm | - | 108 W/m² | - |
| 1787691901 | 23.89° C | 63% | 1012 hPa | 0 mm | - | 112 W/m² | - |
| 1787691600 | 23.89° C | 63% | 1012 hPa | 0 mm | - | 131 W/m² | - |
| 1787691298 | 23.89° C | 65% | 1011.7 hPa | 0 mm | - | 94 W/m² | - |
| 1787690994 | 23.89° C | 64% | 1011.8 hPa | 0 mm | - | 147 W/m² | - |
| 1787690694 | 25° C | 65% | 1011.9 hPa | 0 mm | - | 121 W/m² | - |
| 1787690389 | 24.44° C | 62% | 1012.2 hPa | 0 mm | - | 356 W/m² | - |
* Rain latest hour (hover to see other rain measurements)
** Current wind speed in m/s (hover to see current wind gust speed)